Wind_Speed
54 54 53 53 54 56 59 60 62 62 62 61 61 61 62 61 61 59 56 56 55 54 52 51 50 49 48 48 49 50 51 52 54 55 55 56 57 58
55 55 56 56 57 59 61 63 64 65 65 59 57 56 56 56 55 54 53 53 53 52 51 50 49 49 47 46 46 46 47 48 49 50 51 52 55 58
56 56 57 58 59 60 62 63 62 62 61 55 50 47 48 49 48 48 48 47 47 45 43 42 44 46 45 44 43 42 42 43 44 45 47 49 52 56
55 56 58 59 60 60 60 59 58 56 53 47 44 41 41 42 43 43 43 42 40 37 35 36 40 42 42 42 42 41 41 41 42 42 41 43 45 49
56 57 58 58 56 54 52 51 49 47 43 40 37 36 37 38 39 39 38 36 33 31 30 32 34 36 38 40 40 40 40 40 40 39 38 37 37 40
56 56 55 52 47 44 43 41 38 35 33 31 29 30 31 34 35 33 29 26 25 24 24 25 27 30 33 36 37 38 38 39 39 37 35 34 33 34
53 51 47 44 43 41 38 34 29 25 23 22 23 24 27 28 27 22 19 18 17 16 17 19 22 25 28 30 32 34 36 38 38 37 35 34 34 34
47 45 43 43 42 39 33 27 22 18 17 18 19 20 21 20 16 14 12 12 11 11 13 16 19 22 24 27 29 31 33 36 37 37 36 36 36 36
41 40 40 38 35 30 26 22 19 17 16 16 16 16 14 12 10 8 7 7 8 9 11 13 15 19 22 24 26 28 31 34 37 38 38 37 37 38
35 35 34 31 26 21 19 18 16 15 14 13 11 10 8 6 5 5 5 6 7 8 9 12 15 19 22 24 25 28 32 36 39 42 42 41 40 40
32 32 29 26 21 16 14 13 11 10 9 7 5 5 4 3 4 5 5 7 7 7 8 12 16 21 23 23 24 25 27 30 34 39 42 43 43 43
29 28 27 22 16 12 8 6 5 5 5 4 4 4 3 4 5 6 6 6 5 5 8 11 16 19 20 19 18 19 22 25 29 33 37 39 40 40
25 25 23 17 11 7 2 3 7 7 7 8 7 6 6 6 7 7 6 2 2 5 8 10 10 9 9 9 9 11 12 13 17 23 32 36 37 36
22 21 16 10 6 4 8 10 10 11 11 10 9 7 7 9 9 6 3 4 4 6 6 4 3 3 2 4 5 6 9 14 20 25 30 34 36 37
20 16 10 8 9 11 12 12 12 12 11 10 9 9 10 10 7 5 6 6 5 4 4 7 10 10 10 11 12 16 21 26 31 32 33 36 37 38
17 11 10 11 13 13 13 12 11 11 10 9 9 10 10 9 7 7 7 7 8 10 11 12 14 15 16 17 17 21 24 28 32 33 33 35 36 38
11 10 13 14 13 12 11 11 11 10 9 7 7 9 9 9 8 8 8 8 11 12 12 13 16 20 22 21 20 22 25 27 29 30 29 30 33 35
9 12 15 15 15 14 14 14 13 11 9 8 9 11 11 10 9 10 11 11 12 13 14 16 20 24 24 23 23 24 25 26 27 26 26 26 28 30
9 12 13 15 15 15 14 14 13 12 12 12 13 14 12 11 11 11 12 12 13 15 16 18 21 24 23 20 23 25 25 26 27 26 25 24 24 27
10 12 14 15 15 15 15 14 13 12 12 13 14 13 12 12 13 13 13 15 17 18 20 22 26 26 24 21 22 27 28 29 30 31 32 32 32 30
12 14 15 15 15 16 16 15 13 10 10 11 12 12 13 14 15 16 17 19 20 21 22 23 27 28 27 25 24 26 28 30 31 31 30 28 27 25
13 15 14 14 14 14 14 14 12 11 11 11 12 13 15 16 17 18 19 21 22 23 22 21 22 25 27 27 24 22 23 25 26 25 23 24 24 23
13 14 13 12 11 11 11 12 13 13 12 12 13 15 18 19 18 19 20 22 23 23 22 20 19 21 23 23 22 20 21 23 23 22 20 19 19 19
Wind_Direction
291 290 289 288 288 287 287 286 284 283 282 282 281 280 278 276 275 273 271 269 269 270 268 262 255 253 254 252 245 240 238 238 239 240 242 244 245 245
293 291 290 290 290 289 288 287 286 286 285 284 281 278 275 273 271 270 269 269 270 270 265 258 251 248 251 249 242 238 236 237 239 240 242 244 245 245
294 293 293 293 294 293 291 290 288 287 285 284 280 275 271 270 269 269 269 270 271 268 262 254 246 245 248 245 237 233 234 236 238 239 242 244 246 244
298 299 299 298 296 294 292 289 287 284 284 284 280 273 269 269 270 270 270 270 267 264 258 252 247 246 244 239 233 231 233 234 235 237 241 244 245 242
304 303 301 299 297 295 294 292 288 284 282 280 275 270 268 270 272 273 272 268 264 261 257 253 248 242 237 233 231 231 232 232 233 235 238 241 240 234
307 304 301 298 296 297 298 296 292 287 281 276 270 268 269 271 273 273 270 265 260 255 249 244 239 234 231 232 233 233 232 231 232 234 235 233 230 226
307 304 301 297 296 297 297 294 292 288 282 276 272 271 270 271 272 270 265 260 250 242 235 232 230 230 232 235 237 236 234 232 233 235 233 228 224 222
307 305 302 299 297 294 290 287 287 283 280 280 278 273 270 270 266 263 257 246 234 228 230 231 233 237 241 244 244 242 238 235 234 232 229 225 221 219
309 308 307 305 299 292 284 280 279 277 280 282 278 272 266 259 252 245 235 228 227 230 234 239 247 253 255 253 250 247 243 239 236 234 231 228 222 218
312 313 314 312 306 295 282 277 279 279 279 276 272 263 251 235 215 199 205 211 216 223 235 248 258 261 262 261 259 255 251 245 241 236 234 231 226 222
318 319 319 318 313 301 288 280 276 273 266 258 249 227 213 200 176 174 184 194 206 222 244 256 262 264 268 268 265 258 251 245 240 235 230 227 225 222
320 320 319 319 316 308 298 282 248 213 196 182 178 184 174 151 150 157 164 173 195 235 260 267 268 271 270 265 257 253 251 245 238 229 221 216 214 212
320 321 321 322 320 317 329 133 141 146 147 144 139 138 138 135 133 132 130 130 296 290 284 283 285 283 264 250 245 247 246 230 214 206 202 200 198 198
326 329 335 345 7 76 107 117 124 130 132 131 133 135 130 125 122 114 71 28 1 326 305 312 32 47 141 162 161 149 140 143 152 159 166 173 176 176
339 347 8 43 77 96 104 112 120 127 129 126 123 125 122 118 111 89 58 50 39 27 50 75 74 78 105 117 119 121 123 131 139 144 150 157 162 166
347 13 56 78 89 96 102 108 115 124 126 121 118 118 113 109 99 77 65 80 85 79 77 81 80 82 96 111 118 125 130 133 137 140 146 153 159 166
14 68 85 90 95 100 104 107 112 119 124 126 126 122 116 108 93 78 77 101 104 92 87 88 87 90 96 106 114 125 133 136 136 139 145 153 160 164
58 97 101 101 100 102 105 107 107 106 108 116 124 121 115 106 96 89 90 105 110 106 104 100 94 96 98 104 114 121 129 134 135 137 142 149 158 163
88 112 113 112 105 102 103 105 103 101 104 111 119 117 109 103 100 95 95 107 115 116 109 100 96 97 98 103 116 124 129 134 136 138 140 144 152 159
106 119 120 115 106 102 102 102 100 101 105 112 117 114 106 106 105 96 101 112 118 118 110 104 105 106 107 111 119 125 130 134 135 135 135 136 140 142
117 123 121 112 104 103 101 95 92 100 111 118 118 113 111 113 107 99 105 113 117 117 111 107 110 113 116 117 118 118 118 121 125 129 132 137 140 140
124 127 123 114 107 104 98 87 85 100 114 119 117 116 119 119 110 104 108 116 120 120 119 115 114 118 121 123 121 117 118 120 122 127 132 136 139 144
130 134 128 118 109 101 89 76 79 92 109 118 119 124 127 123 114 109 113 119 125 128 128 126 124 125 127 126 125 123 122 125 127 128 131 135 136 140
Height
5652 5646 5640 5634 5630 5626 5621 5615 5610 5606 5604 5599 5594 5590 5588 5587 5586 5586 5586 5586 5587 5588 5589 5590 5591 5594 5596 5599 5604 5609 5614 5619 5625 5631 5637 5643 5650 5657
5639 5632 5626 5620 5615 5610 5604 5597 5590 5585 5582 5579 5574 5570 5568 5567 5567 5567 5566 5567 5568 5569 5570 5572 5574 5578 5581 5585 5590 5595 5600 5606 5611 5617 5623 5628 5634 5639
5625 5618 5611 5604 5598 5592 5585 5577 5571 5565 5561 5559 5555 5552 5550 5550 5549 5550 5550 5551 5552 5553 5554 5555 5559 5563 5568 5573 5578 5583 5589 5594 5600 5605 5609 5614 5617 5622
5608 5600 5593 5586 5580 5573 5566 5559 5552 5547 5543 5541 5539 5538 5537 5536 5536 5537 5537 5538 5538 5539 5540 5542 5546 5551 5556 5561 5567 5572 5578 5582 5587 5592 5597 5601 5603 5605
5591 5583 5576 5569 5563 5556 5548 5541 5535 5531 5529 5528 5527 5526 5526 5526 5526 5526 5526 5526 5527 5528 5529 5532 5535 5540 5545 5551 5556 5562 5567 5571 5577 5582 5586 5589 5591 5593
5575 5567 5560 5553 5547 5541 5535 5528 5523 5520 5518 5517 5516 5516 5517 5516 5516 5516 5516 5517 5518 5520 5522 5524 5527 5532 5537 5542 5547 5552 5557 5562 5567 5572 5576 5580 5583 5587
5561 5553 5546 5540 5534 5529 5523 5518 5514 5511 5509 5509 5509 5509 5508 5508 5508 5509 5509 5510 5512 5514 5517 5520 5523 5527 5530 5534 5538 5543 5548 5552 5557 5562 5567 5573 5578 5583
5548 5540 5533 5527 5521 5516 5513 5510 5507 5505 5504 5503 5503 5502 5502 5502 5503 5504 5505 5507 5510 5512 5514 5517 5519 5522 5525 5528 5531 5534 5538 5542 5547 5552 5558 5564 5571 5577
5537 5530 5522 5515 5509 5505 5503 5502 5501 5500 5500 5499 5498 5497 5497 5498 5500 5501 5503 5506 5508 5510 5512 5513 5515 5516 5518 5519 5522 5524 5527 5531 5535 5541 5547 5554 5561 5570
5527 5520 5513 5506 5500 5497 5496 5496 5496 5496 5496 5495 5495 5495 5496 5497 5499 5501 5503 5506 5508 5509 5509 5510 5510 5510 5510 5511 5512 5514 5516 5518 5522 5527 5534 5542 5550 5559
5519 5512 5506 5500 5496 5492 5491 5491 5492 5493 5493 5493 5494 5495 5496 5498 5500 5502 5504 5505 5506 5507 5507 5507 5506 5504 5504 5504 5504 5503 5504 5505 5508 5513 5520 5529 5538 5547
5514 5507 5501 5496 5492 5490 5488 5488 5489 5491 5493 5494 5495 5496 5498 5500 5501 5503 5504 5505 5506 5506 5505 5504 5501 5499 5498 5497 5497 5496 5495 5495 5496 5500 5507 5518 5528 5538
5509 5503 5497 5493 5490 5488 5487 5488 5490 5492 5494 5495 5497 5499 5500 5502 5503 5505 5506 5506 5506 5505 5503 5500 5497 5495 5494 5493 5493 5492 5489 5487 5487 5490 5498 5510 5522 5534
5505 5500 5495 5491 5489 5489 5489 5491 5493 5495 5496 5498 5500 5502 5503 5505 5506 5507 5507 5506 5505 5503 5500 5498 5496 5494 5493 5492 5492 5491 5489 5488 5489 5493 5500 5510 5521 5532
5503 5498 5495 5493 5492 5492 5494 5495 5497 5499 5500 5502 5503 5505 5507 5508 5509 5509 5508 5507 5505 5503 5500 5498 5497 5496 5494 5494 5495 5495 5495 5495 5498 5503 5510 5518 5526 5535
5504 5500 5498 5497 5497 5497 5499 5500 5501 5503 5504 5505 5507 5508 5510 5511 5512 5511 5510 5509 5508 5506 5503 5502 5501 5499 5498 5499 5501 5502 5505 5507 5510 5515 5521 5527 5534 5541
5505 5503 5502 5502 5502 5502 5503 5504 5505 5506 5507 5508 5510 5511 5513 5514 5514 5513 5513 5512 5511 5510 5508 5507 5506 5504 5504 5505 5508 5510 5514 5518 5521 5526 5531 5536 5541 5548
5507 5506 5506 5506 5506 5507 5507 5508 5509 5510 5510 5511 5512 5514 5516 5517 5516 5516 5516 5516 5515 5514 5514 5514 5513 5512 5513 5514 5516 5519 5523 5527 5531 5535 5540 5546 5551 5557
5510 5510 5510 5510 5511 5511 5512 5512 5513 5513 5514 5514 5516 5518 5519 5519 5519 5519 5519 5519 5520 5520 5520 5521 5521 5521 5522 5524 5525 5527 5532 5536 5540 5544 5548 5554 5560 5566
5513 5513 5514 5515 5515 5516 5516 5517 5517 5517 5518 5518 5520 5521 5522 5523 5523 5523 5523 5524 5525 5527 5528 5529 5529 5530 5532 5534 5535 5537 5539 5543 5548 5552 5557 5562 5568 5575
5515 5517 5518 5519 5520 5520 5521 5521 5521 5521 5521 5522 5523 5525 5526 5527 5527 5528 5528 5528 5530 5533 5535 5537 5538 5539 5541 5544 5546 5548 5550 5553 5557 5562 5567 5572 5577 5582
5519 5521 5522 5523 5524 5525 5525 5525 5525 5525 5525 5525 5526 5528 5530 5531 5532 5533 5533 5535 5537 5539 5543 5545 5547 5548 5550 5552 5555 5558 5560 5563 5567 5571 5576 5581 5585 5590
5522 5524 5526 5528 5528 5529 5529 5529 5529 5529 5528 5529 5530 5532 5534 5536 5537 5539 5540 5542 5544 5546 5549 5552 5555 5557 5559 5560 5562 5565 5568 5572 5576 5580 5584 5587 5591 5596